| time (UTC) | temp F | wind direction | speed knots | gust knots | rain 1hr in | rain 24hr in | rain mn in | humidity % | barometer mb |
| 20260503053729 | 74 | 277 | 0.9 | 5.2 | 0.00 | 0.19 | 0.01 | 87 | 1014.4 |
| 20260503052829 | 74 | 274 | 0.9 | 3.5 | 0.00 | 0.19 | 0.01 | 87 | 1014.6 |
| 20260503051929 | 74 | 273 | 1.7 | 4.3 | 0.00 | 0.19 | 0.01 | 87 | 1014.5 |
| 20260503051029 | 74 | 270 | 1.7 | 4.3 | 0.01 | 0.19 | 0.01 | 87 | 1014.6 |
| 20260503050129 | 74 | 266 | 1.7 | 6.1 | 0.01 | 0.19 | 0.01 | 88 | 1014.8 |
| 20260503045229 | 74 | 269 | 0.9 | 4.3 | 0.01 | 0.19 | 0.01 | 88 | 1014.7 |
| 20260503044329 | 73 | 272 | 1.7 | 6.1 | 0.01 | 0.19 | 0.01 | 89 | 1014.7 |
| 20260503043429 | 72 | 267 | 0.9 | 4.3 | 0.01 | 0.19 | 0.01 | 92 | 1014.9 |
| 20260503041629 | 72 | 252 | 0.9 | 2.6 | 0.01 | 0.19 | 0.01 | 95 | 1015.0 |
| 20260503040729 | 72 | 0 | 0.0 | 2.6 | 0.00 | 0.18 | 0.00 | 95 | 1015.0 |
| 20260503035829 | 71 | 0 | 0.0 | 2.6 | 0.00 | 0.18 | 0.18 | 95 | 1015.2 |
| 20260503034929 | 71 | 0 | 0.0 | 2.6 | 0.00 | 0.18 | 0.18 | 95 | 1015.2 |
| 20260503034029 | 71 | 0 | 0.0 | 1.7 | 0.00 | 0.18 | 0.18 | 95 | 1015.1 |
| 20260503033129 | 71 | 0 | 0.0 | 1.7 | 0.00 | 0.18 | 0.18 | 95 | 1014.5 |
| 20260503031329 | 71 | 0 | 0.0 | 1.7 | 0.01 | 0.18 | 0.18 | 94 | 1013.9 |
| 20260503030429 | 71 | 0 | 0.0 | 5.2 | 0.01 | 0.18 | 0.18 | 95 | 1013.9 |
| 20260503024629 | 71 | 166 | 0.9 | 3.5 | 0.01 | 0.18 | 0.18 | 95 | 1013.4 |
| 20260503023729 | 72 | 157 | 1.7 | 4.3 | 0.01 | 0.18 | 0.18 | 95 | 1012.9 |
| 20260503022829 | 72 | 142 | 0.9 | 3.5 | 0.01 | 0.18 | 0.18 | 95 | 1013.2 |
| 20260503021929 | 72 | 0 | 0.0 | 0.0 | 0.03 | 0.17 | 0.17 | 95 | 1013.6 |
| 20260503021029 | 72 | 0 | 0.0 | 3.5 | 0.04 | 0.17 | 0.17 | 95 | 1013.8 |
| 20260503020129 | 72 | 210 | 0.9 | 6.1 | 0.04 | 0.17 | 0.17 | 95 | 1014.0 |
| 20260503015229 | 73 | 199 | 0.9 | 4.3 | 0.04 | 0.17 | 0.17 | 95 | 1013.9 |
| 20260503014329 | 73 | 200 | 0.9 | 4.3 | 0.04 | 0.17 | 0.17 | 95 | 1013.5 |
| 20260503013429 | 73 | 181 | 0.9 | 2.6 | 0.04 | 0.17 | 0.17 | 95 | 1013.2 |
| 20260503012529 | 73 | 0 | 0.0 | 2.6 | 0.04 | 0.17 | 0.17 | 95 | 1013.6 |
| 20260503011629 | 73 | 177 | 0.9 | 4.3 | 0.01 | 0.14 | 0.14 | 95 | 1013.4 |
| 20260503004029 | 73 | 0 | 0.0 | 0.9 | 0.00 | 0.13 | 0.13 | 94 | 1013.3 |
| 20260503003129 | 73 | 0 | 0.0 | 0.9 | 0.01 | 0.13 | 0.13 | 93 | 1013.2 |
| 20260503002229 | 73 | 0 | 0.0 | 1.7 | 0.01 | 0.13 | 0.13 | 93 | 1013.2 |
| 20260503001329 | 73 | 0 | 0.0 | 2.6 | 0.01 | 0.13 | 0.13 | 92 | 1013.0 |
| 20260503000430 | 73 | 0 | 0.0 | 1.7 | 0.01 | 0.13 | 0.13 | 91 | 1012.9 |
| 20260502235529 | 73 | 338 | 0.9 | 2.6 | 0.01 | 0.13 | 0.13 | 91 | 1013.2 |
| 20260502234629 | 73 | 348 | 1.7 | 4.3 | 0.01 | 0.13 | 0.13 | 90 | 1012.9 |
| 20260502232829 | 74 | 329 | 2.6 | 4.3 | 0.00 | 0.12 | 0.12 | 93 | 1013.2 |
| 20260502231929 | 74 | 323 | 1.7 | 4.3 | 0.02 | 0.12 | 0.12 | 93 | 1013.3 |
| 20260502231029 | 74 | 324 | 2.6 | 5.2 | 0.12 | 0.12 | 0.12 | 93 | 1013.3 |
| 20260502225229 | 74 | 319 | 2.6 | 5.2 | 0.12 | 0.12 | 0.12 | 93 | 1012.9 |
| 20260502224329 | 74 | 316 | 3.5 | 6.1 | 0.12 | 0.12 | 0.12 | 92 | 1013.0 |
| 20260502223429 | 74 | 316 | 3.5 | 8.7 | 0.12 | 0.12 | 0.12 | 92 | 1012.8 |
| 20260502221629 | 76 | 310 | 5.2 | 12.2 | 0.04 | 0.04 | 0.05 | 84 | 1012.6 |
| 20260502220729 | 82 | 244 | 2.6 | 8.7 | 0.00 | 0.00 | 0.00 | 82 | 1011.8 |
| 20260502215829 | 82 | 243 | 1.7 | 6.1 | 0.00 | 0.00 | 0.00 | 81 | 1011.5 |
| 20260502214929 | 82 | 258 | 1.7 | 6.1 | 0.00 | 0.00 | 0.00 | 81 | 1011.7 |
| 20260502214029 | 82 | 262 | 1.7 | 8.7 | 0.00 | 0.00 | 0.00 | 80 | 1011.8 |
| 20260502213129 | 83 | 268 | 2.6 | 8.7 | 0.00 | 0.00 | 0.00 | 78 | 1011.8 |
| 20260502212229 | 83 | 262 | 1.7 | 6.1 | 0.00 | 0.00 | 0.00 | 77 | 1011.8 |
| 20260502211329 | 83 | 250 | 1.7 | 5.2 | 0.00 | 0.00 | 0.00 | 76 | 1011.7 |
| 20260502210429 | 84 | 263 | 1.7 | 6.1 | 0.00 | 0.00 | 0.00 | 75 | 1011.5 |
| 20260502205529 | 84 | 254 | 1.7 | 5.2 | 0.00 | 0.00 | 0.00 | 74 | 1011.5 |
| 20260502204629 | 85 | 270 | 2.6 | 8.7 | 0.00 | 0.00 | 0.00 | 73 | 1011.4 |
| 20260502203729 | 86 | 267 | 2.6 | 10.4 | 0.00 | 0.00 | 0.00 | 69 | 1011.5 |
| 20260502202829 | 88 | 263 | 2.6 | 8.7 | 0.00 | 0.00 | 0.00 | 69 | 1011.5 |
| 20260502201929 | 88 | 269 | 2.6 | 7.8 | 0.00 | 0.00 | 0.00 | 69 | 1011.5 |
| 20260502201029 | 88 | 256 | 2.6 | 7.0 | 0.00 | 0.00 | 0.00 | 70 | 1011.6 |
| 20260502200129 | 87 | 270 | 3.5 | 8.7 | 0.00 | 0.00 | 0.00 | 70 | 1011.7 |
| 20260502195229 | 87 | 275 | 4.3 | 10.4 | 0.00 | 0.00 | 0.00 | 71 | 1011.7 |
| 20260502194329 | 88 | 266 | 2.6 | 7.8 | 0.00 | 0.00 | 0.00 | 71 | 1011.7 |
| 20260502193429 | 87 | 270 | 3.5 | 8.7 | 0.00 | 0.00 | 0.00 | 68 | 1011.7 |
| 20260502192529 | 88 | 260 | 3.5 | 8.7 | 0.00 | 0.00 | 0.00 | 69 | 1011.9 |
| 20260502190729 | 89 | 258 | 2.6 | 7.8 | 0.00 | 0.00 | 0.00 | 70 | 1012.1 |
| 20260502185829 | 89 | 260 | 2.6 | 6.1 | 0.00 | 0.00 | 0.00 | 70 | 1012.2 |
| 20260502184929 | 89 | 236 | 3.5 | 11.3 | 0.00 | 0.00 | 0.00 | 70 | 1012.3 |
| 20260502184029 | 89 | 234 | 3.5 | 12.2 | 0.00 | 0.00 | 0.00 | 71 | 1012.3 |
| 20260502182229 | 88 | 265 | 3.5 | 10.4 | 0.00 | 0.00 | 0.00 | 73 | 1012.6 |
| 20260502181329 | 89 | 269 | 3.5 | 9.6 | 0.00 | 0.00 | 0.00 | 72 | 1012.7 |
| 20260502180429 | 88 | 266 | 3.5 | 13.0 | 0.00 | 0.00 | 0.00 | 71 | 1012.7 |
| 20260502170129 | 88 | 246 | 3.5 | 11.3 | 0.00 | 0.00 | 0.00 | 71 | 1012.8 |
| 20260502164329 | 89 | 245 | 3.5 | 10.4 | 0.00 | 0.00 | 0.00 | 69 | 1012.9 |
| 20260502163429 | 89 | 236 | 4.3 | 12.2 | 0.00 | 0.00 | 0.00 | 69 | 1012.9 |
| 20260502161629 | 88 | 234 | 4.3 | 10.4 | 0.00 | 0.00 | 0.00 | 71 | 1012.9 |
| 20260502160729 | 88 | 232 | 4.3 | 14.8 | 0.00 | 0.00 | 0.00 | 71 | 1012.8 |
| 20260502152229 | 87 | 231 | 4.3 | 14.8 | 0.00 | 0.00 | 0.00 | 70 | 1012.4 |
| 20260502151329 | 87 | 217 | 5.2 | 12.2 | 0.00 | 0.00 | 0.00 | 71 | 1012.4 |
| 20260502150429 | 87 | 213 | 4.3 | 13.0 | 0.00 | 0.00 | 0.00 | 70 | 1012.3 |
| 20260502130729 | 82 | 201 | 1.7 | 7.0 | 0.00 | 0.00 | 0.00 | 84 | 1011.8 |
| 20260502123129 | 76 | 184 | 0.9 | 3.5 | 0.00 | 0.00 | 0.00 | 92 | 1011.6 |
| 20260502122229 | 75 | 182 | 0.9 | 3.5 | 0.00 | 0.00 | 0.00 | 95 | 1011.5 |
| 20260502121329 | 74 | 0 | 0.0 | 1.7 | 0.00 | 0.00 | 0.00 | 96 | 1011.5 |
| 20260502120429 | 73 | 152 | 0.9 | 1.7 | 0.00 | 0.00 | 0.00 | 97 | 1011.5 |
| 20260502115529 | 72 | 0 | 0.0 | 2.6 | 0.00 | 0.00 | 0.00 | 97 | 1011.5 |
| 20260502114629 | 71 | 148 | 0.9 | 2.6 | 0.00 | 0.00 | 0.00 | 97 | 1011.4 |
| 20260502113729 | 71 | 150 | 0.9 | 3.5 | 0.00 | 0.00 | 0.00 | 97 | 1011.4 |
| 20260502112829 | 70 | 154 | 0.9 | 2.6 | 0.00 | 0.00 | 0.00 | 97 | 1011.4 |
| 20260502111929 | 70 | 156 | 0.9 | 3.5 | 0.00 | 0.00 | 0.00 | 97 | 1011.3 |
| 20260502111029 | 69 | 154 | 0.9 | 2.6 | 0.00 | 0.00 | 0.00 | 97 | 1011.4 |
| 20260502110129 | 68 | 0 | 0.0 | 0.9 | 0.00 | 0.00 | 0.00 | 97 | 1011.3 |
| 20260502105229 | 68 | 0 | 0.0 | 0.0 | 0.00 | 0.00 | 0.00 | 96 | 1011.3 |
| 20260502104329 | 67 | 0 | 0.0 | 0.0 | 0.00 | 0.00 | 0.00 | 96 | 1011.3 |
| 20260502103429 | 67 | 0 | 0.0 | 0.9 | 0.00 | 0.00 | 0.00 | 96 | 1011.3 |
| 20260502101629 | 66 | 0 | 0.0 | 0.0 | 0.00 | 0.00 | 0.00 | 95 | 1011.4 |
| 20260502100729 | 66 | 0 | 0.0 | 0.0 | 0.00 | 0.00 | 0.00 | 95 | 1011.5 |
| 20260502091329 | 67 | 0 | 0.0 | 0.9 | 0.00 | 0.00 | 0.00 | 95 | 1011.6 |
| 20260502070729 | 65 | 0 | 0.0 | 0.0 | 0.00 | 0.00 | 0.00 | 93 | 1011.5 |
| 20260502065829 | 65 | 0 | 0.0 | 0.0 | 0.00 | 0.00 | 0.00 | 93 | 1011.6 |
| 20260502064929 | 66 | 0 | 0.0 | 0.0 | 0.00 | 0.00 | 0.00 | 92 | 1011.8 |
| 20260502064029 | 66 | 0 | 0.0 | 0.0 | 0.00 | 0.00 | 0.00 | 92 | 1011.8 |
| 20260502063129 | 66 | 0 | 0.0 | 0.0 | 0.00 | 0.00 | 0.00 | 92 | 1011.8 |
| 20260502062229 | 66 | 0 | 0.0 | 0.0 | 0.00 | 0.00 | 0.00 | 92 | 1011.9 |
| 20260502061329 | 66 | 0 | 0.0 | 0.0 | 0.00 | 0.00 | 0.00 | 92 | 1012.1 |
| 20260502060429 | 66 | 0 | 0.0 | 0.0 | 0.00 | 0.00 | 0.00 | 91 | 1012.2 |
| 20260502055529 | 66 | 0 | 0.0 | 0.0 | 0.00 | 0.00 | 0.00 | 92 | 1012.2 |
| 20260502054629 | 66 | 0 | 0.0 | 0.0 | 0.00 | 0.00 | 0.00 | 92 | 1012.3 |